McCloud Below McCloud Dam [ USA-CAL ]

Edit Gauge

Current Conditions

Reading of "n/a" = frozen gauge or gauge error.
Reading Trend Type Updated
too low 0.0 r.c./hr Status 02h00m
255 cfs -2 cfs/hr Flow 02h00m

Station Description

AW Gauge ID: 50566
Source: dream
Station: 158
Enabled yes
AW thanks Chris Shackleton and Dreamflows for this data. Dreamflows data should only be analyzed in the context of the Dreamflows site. Data is often calculated and/or approximated. Please see Chris's site for a complete description of how this data should and can be interpreted. Source Gauge's Page

Information

Flow

Gauge History

Times listed in GMT 24h, ET and PT hours provided for convenience Graphs in GMT. Readings of "n/a" constitute a frozen gauge or gauge error.
Reading Updated (GMT) Eastern Pacific Comment
255.00 01/18/2019 05:28:32 Jan 18 12:28 am Jan 17 9:28 pm
258.00 01/18/2019 04:13:52 Jan 17 11:13 pm Jan 17 8:13 pm
260.00 01/18/2019 03:29:04 Jan 17 10:29 pm Jan 17 7:29 pm
258.00 01/18/2019 01:59:28 Jan 17 08:59 pm Jan 17 5:59 pm
260.00 01/18/2019 01:29:36 Jan 17 08:29 pm Jan 17 5:29 pm
262.00 01/18/2019 00:29:52 Jan 17 07:29 pm Jan 17 4:29 pm
258.00 01/17/2019 23:28:00 Jan 17 06:28 pm Jan 17 3:28 pm
260.00 01/17/2019 22:28:16 Jan 17 05:28 pm Jan 17 2:28 pm
262.00 01/17/2019 21:28:32 Jan 17 04:28 pm Jan 17 1:28 pm
264.00 01/17/2019 20:28:48 Jan 17 03:28 pm Jan 17 12:28 pm
260.00 01/17/2019 19:58:56 Jan 17 02:58 pm Jan 17 11:58 am
262.00 01/17/2019 19:29:04 Jan 17 02:29 pm Jan 17 11:29 am
264.00 01/17/2019 18:29:20 Jan 17 01:29 pm Jan 17 10:29 am
264.00 01/17/2019 17:29:36 Jan 17 12:29 pm Jan 17 9:29 am
264.00 01/17/2019 16:29:52 Jan 17 11:29 am Jan 17 8:29 am
264.00 01/17/2019 15:28:00 Jan 17 10:28 am Jan 17 7:28 am
264.00 01/17/2019 14:28:16 Jan 17 09:28 am Jan 17 6:28 am
269.00 01/17/2019 13:28:32 Jan 17 08:28 am Jan 17 5:28 am
272.00 01/17/2019 12:28:48 Jan 17 07:28 am Jan 17 4:28 am
272.00 01/17/2019 11:29:04 Jan 17 06:29 am Jan 17 3:29 am
264.00 01/17/2019 10:29:20 Jan 17 05:29 am Jan 17 2:29 am
264.00 01/17/2019 09:14:40 Jan 17 04:14 am Jan 17 1:14 am
260.00 01/17/2019 05:13:36 Jan 17 12:13 am Jan 16 9:13 pm
255.00 01/17/2019 04:13:52 Jan 16 11:13 pm Jan 16 8:13 pm
253.00 01/17/2019 03:14:08 Jan 16 10:14 pm Jan 16 7:14 pm
251.00 01/17/2019 02:14:24 Jan 16 09:14 pm Jan 16 6:14 pm
246.00 01/17/2019 01:14:40 Jan 16 08:14 pm Jan 16 5:14 pm
246.00 01/17/2019 00:14:56 Jan 16 07:14 pm Jan 16 4:14 pm
244.00 01/16/2019 23:13:04 Jan 16 06:13 pm Jan 16 3:13 pm
235.00 01/16/2019 22:13:20 Jan 16 05:13 pm Jan 16 2:13 pm
235.00 01/16/2019 21:13:36 Jan 16 04:13 pm Jan 16 1:13 pm
235.00 01/16/2019 20:13:52 Jan 16 03:13 pm Jan 16 12:13 pm
235.00 01/16/2019 19:58:56 Jan 16 02:58 pm Jan 16 11:58 am
235.00 01/16/2019 19:14:08 Jan 16 02:14 pm Jan 16 11:14 am
233.00 01/16/2019 18:14:24 Jan 16 01:14 pm Jan 16 10:14 am
231.00 01/16/2019 17:44:32 Jan 16 12:44 pm Jan 16 9:44 am
235.00 01/16/2019 16:14:56 Jan 16 11:14 am Jan 16 8:14 am
235.00 01/16/2019 15:28:00 Jan 16 10:28 am Jan 16 7:28 am
233.00 01/15/2019 20:28:48 Jan 15 03:28 pm Jan 15 12:28 pm
230.00 01/15/2019 19:58:56 Jan 15 02:58 pm Jan 15 11:58 am
231.00 01/15/2019 14:43:12 Jan 15 09:43 am Jan 15 6:43 am
235.00 01/15/2019 11:29:04 Jan 15 06:29 am Jan 15 3:29 am
233.00 01/15/2019 08:00:00 Jan 15 03:00 am Jan 15 12:00 am
235.00 01/15/2019 01:29:36 Jan 14 08:29 pm Jan 14 5:29 pm
235.00 01/14/2019 22:13:20 Jan 14 05:13 pm Jan 14 2:13 pm
235.00 01/14/2019 19:58:56 Jan 14 02:58 pm Jan 14 11:58 am
233.00 01/14/2019 18:59:12 Jan 14 01:59 pm Jan 14 10:59 am
235.00 01/14/2019 14:58:08 Jan 14 09:58 am Jan 14 6:58 am
235.00 01/14/2019 09:59:28 Jan 14 04:59 am Jan 14 1:59 am
235.00 01/14/2019 03:58:56 Jan 13 10:58 pm Jan 13 7:58 pm
235.00 01/14/2019 01:14:40 Jan 13 08:14 pm Jan 13 5:14 pm
240.00 01/13/2019 22:28:16 Jan 13 05:28 pm Jan 13 2:28 pm
235.00 01/13/2019 19:58:56 Jan 13 02:58 pm Jan 13 11:58 am
233.00 01/13/2019 19:44:00 Jan 13 02:44 pm Jan 13 11:44 am
240.00 01/13/2019 16:44:48 Jan 13 11:44 am Jan 13 8:44 am
240.00 01/13/2019 13:43:28 Jan 13 08:43 am Jan 13 5:43 am
235.00 01/13/2019 10:59:12 Jan 13 05:59 am Jan 13 2:59 am
235.00 01/13/2019 08:14:56 Jan 13 03:14 am Jan 13 12:14 am
242.00 01/13/2019 02:14:24 Jan 12 09:14 pm Jan 12 6:14 pm
242.00 01/12/2019 23:42:56 Jan 12 06:42 pm Jan 12 3:42 pm
244.00 01/12/2019 20:43:44 Jan 12 03:43 pm Jan 12 12:43 pm
235.00 01/12/2019 19:58:56 Jan 12 02:58 pm Jan 12 11:58 am
235.00 01/12/2019 17:29:36 Jan 12 12:29 pm Jan 12 9:29 am
244.00 01/12/2019 14:28:16 Jan 12 09:28 am Jan 12 6:28 am
244.00 01/12/2019 11:29:04 Jan 12 06:29 am Jan 12 3:29 am
240.00 01/12/2019 08:14:56 Jan 12 03:14 am Jan 12 12:14 am
242.00 01/12/2019 01:59:28 Jan 11 08:59 pm Jan 11 5:59 pm
244.00 01/11/2019 22:58:08 Jan 11 05:58 pm Jan 11 2:58 pm
245.00 01/11/2019 19:58:56 Jan 11 02:58 pm Jan 11 11:58 am
244.00 01/11/2019 19:44:00 Jan 11 02:44 pm Jan 11 11:44 am
244.00 01/11/2019 16:44:48 Jan 11 11:44 am Jan 11 8:44 am
246.00 01/11/2019 13:43:28 Jan 11 08:43 am Jan 11 5:43 am
244.00 01/11/2019 10:44:16 Jan 11 05:44 am Jan 11 2:44 am
248.00 01/11/2019 01:44:32 Jan 10 08:44 pm Jan 10 5:44 pm
255.00 01/10/2019 20:13:52 Jan 10 03:13 pm Jan 10 12:13 pm
260.00 01/10/2019 19:58:56 Jan 10 02:58 pm Jan 10 11:58 am
260.00 01/10/2019 17:29:36 Jan 10 12:29 pm Jan 10 9:29 am
258.00 01/10/2019 14:43:12 Jan 10 09:43 am Jan 10 6:43 am
264.00 01/10/2019 12:13:52 Jan 10 07:13 am Jan 10 4:13 am
276.00 01/10/2019 09:29:36 Jan 10 04:29 am Jan 10 1:29 am
284.00 01/10/2019 03:58:56 Jan 9 10:58 pm Jan 9 7:58 pm
276.00 01/10/2019 01:14:40 Jan 9 08:14 pm Jan 9 5:14 pm
272.00 01/09/2019 22:13:20 Jan 9 05:13 pm Jan 9 2:13 pm
260.00 01/09/2019 19:58:56 Jan 9 02:58 pm Jan 9 11:58 am
258.00 01/09/2019 19:29:04 Jan 9 02:29 pm Jan 9 11:29 am
251.00 01/09/2019 16:29:52 Jan 9 11:29 am Jan 9 8:29 am
251.00 01/09/2019 13:28:32 Jan 9 08:28 am Jan 9 5:28 am
240.00 01/09/2019 10:14:24 Jan 9 05:14 am Jan 9 2:14 am
231.00 01/09/2019 03:44:00 Jan 8 10:44 pm Jan 8 7:44 pm
231.00 01/09/2019 00:14:56 Jan 8 07:14 pm Jan 8 4:14 pm
229.00 01/08/2019 21:28:32 Jan 8 04:28 pm Jan 8 1:28 pm
225.00 01/08/2019 19:58:56 Jan 8 02:58 pm Jan 8 11:58 am
229.00 01/08/2019 18:14:24 Jan 8 01:14 pm Jan 8 10:14 am
229.00 01/08/2019 15:13:04 Jan 8 10:13 am Jan 8 7:13 am
229.00 01/08/2019 12:43:44 Jan 8 07:43 am Jan 8 4:43 am
229.00 01/08/2019 09:59:28 Jan 8 04:59 am Jan 8 1:59 am
229.00 01/08/2019 01:14:40 Jan 7 08:14 pm Jan 7 5:14 pm
229.00 01/07/2019 22:13:20 Jan 7 05:13 pm Jan 7 2:13 pm
225.00 01/07/2019 19:58:56 Jan 7 02:58 pm Jan 7 11:58 am
229.00 01/07/2019 19:14:08 Jan 7 02:14 pm Jan 7 11:14 am
229.00 01/07/2019 16:14:56 Jan 7 11:14 am Jan 7 8:14 am
231.00 01/06/2019 23:13:04 Jan 6 06:13 pm Jan 6 3:13 pm
229.00 01/06/2019 20:13:52 Jan 6 03:13 pm Jan 6 12:13 pm
230.00 01/06/2019 19:58:56 Jan 6 02:58 pm Jan 6 11:58 am
229.00 01/06/2019 16:29:52 Jan 6 11:29 am Jan 6 8:29 am
229.00 01/06/2019 13:13:36 Jan 6 08:13 am Jan 6 5:13 am
229.00 01/06/2019 10:44:16 Jan 6 05:44 am Jan 6 2:44 am
229.00 01/06/2019 08:00:00 Jan 6 03:00 am Jan 6 12:00 am
227.00 01/06/2019 02:14:24 Jan 5 09:14 pm Jan 5 6:14 pm
227.00 01/05/2019 23:42:56 Jan 5 06:42 pm Jan 5 3:42 pm
229.00 01/05/2019 20:58:40 Jan 5 03:58 pm Jan 5 12:58 pm
225.00 01/05/2019 19:58:56 Jan 5 02:58 pm Jan 5 11:58 am
227.00 01/05/2019 18:29:20 Jan 5 01:29 pm Jan 5 10:29 am
229.00 01/05/2019 15:42:56 Jan 5 10:42 am Jan 5 7:42 am
227.00 01/05/2019 13:13:36 Jan 5 08:13 am Jan 5 5:13 am
227.00 01/05/2019 10:44:16 Jan 5 05:44 am Jan 5 2:44 am
229.00 01/05/2019 08:00:00 Jan 5 03:00 am Jan 5 12:00 am
229.00 01/05/2019 01:44:32 Jan 4 08:44 pm Jan 4 5:44 pm
229.00 01/04/2019 22:13:20 Jan 4 05:13 pm Jan 4 2:13 pm
230.00 01/04/2019 19:58:56 Jan 4 02:58 pm Jan 4 11:58 am
227.00 01/04/2019 18:59:12 Jan 4 01:59 pm Jan 4 10:59 am
229.00 01/04/2019 15:42:56 Jan 4 10:42 am Jan 4 7:42 am
227.00 01/04/2019 12:43:44 Jan 4 07:43 am Jan 4 4:43 am
227.00 01/04/2019 09:44:32 Jan 4 04:44 am Jan 4 1:44 am
229.00 01/04/2019 03:29:04 Jan 3 10:29 pm Jan 3 7:29 pm
227.00 01/04/2019 00:14:56 Jan 3 07:14 pm Jan 3 4:14 pm
229.00 01/03/2019 21:13:36 Jan 3 04:13 pm Jan 3 1:13 pm
230.00 01/03/2019 19:58:56 Jan 3 02:58 pm Jan 3 11:58 am
227.00 01/03/2019 18:14:24 Jan 3 01:14 pm Jan 3 10:14 am
229.00 01/03/2019 14:43:12 Jan 3 09:43 am Jan 3 6:43 am
227.00 01/03/2019 11:44:00 Jan 3 06:44 am Jan 3 3:44 am
227.00 01/03/2019 09:14:40 Jan 3 04:14 am Jan 3 1:14 am
229.00 01/03/2019 03:58:56 Jan 2 10:58 pm Jan 2 7:58 pm
229.00 01/03/2019 01:44:32 Jan 2 08:44 pm Jan 2 5:44 pm
227.00 01/02/2019 23:13:04 Jan 2 06:13 pm Jan 2 3:13 pm
229.00 01/02/2019 20:58:40 Jan 2 03:58 pm Jan 2 12:58 pm
225.00 01/02/2019 19:58:56 Jan 2 02:58 pm Jan 2 11:58 am
229.00 01/02/2019 18:29:20 Jan 2 01:29 pm Jan 2 10:29 am
227.00 01/02/2019 16:14:56 Jan 2 11:14 am Jan 2 8:14 am
229.00 01/02/2019 13:43:28 Jan 2 08:43 am Jan 2 5:43 am
229.00 01/02/2019 11:29:04 Jan 2 06:29 am Jan 2 3:29 am
227.00 01/02/2019 08:59:44 Jan 2 03:59 am Jan 2 12:59 am
229.00 01/02/2019 03:14:08 Jan 1 10:14 pm Jan 1 7:14 pm
227.00 01/02/2019 00:44:48 Jan 1 07:44 pm Jan 1 4:44 pm
227.00 01/01/2019 22:13:20 Jan 1 05:13 pm Jan 1 2:13 pm
230.00 01/01/2019 19:58:56 Jan 1 02:58 pm Jan 1 11:58 am
229.00 01/01/2019 19:44:00 Jan 1 02:44 pm Jan 1 11:44 am
229.00 01/01/2019 16:59:44 Jan 1 11:59 am Jan 1 8:59 am
227.00 01/01/2019 02:59:12 Dec 31 09:59 pm Dec 31 6:59 pm
229.00 01/01/2019 00:00:00 Dec 31 07:00 pm Dec 31 4:00 pm
227.00 12/31/2018 21:28:32 Dec 31 04:28 pm Dec 31 1:28 pm
230.00 12/31/2018 19:58:56 Dec 31 02:58 pm Dec 31 11:58 am
229.00 12/31/2018 18:44:16 Dec 31 01:44 pm Dec 31 10:44 am
229.00 12/31/2018 14:43:12 Dec 31 09:43 am Dec 31 6:43 am
231.00 12/31/2018 10:44:16 Dec 31 05:44 am Dec 31 2:44 am
229.00 12/31/2018 04:13:52 Dec 30 11:13 pm Dec 30 8:13 pm
229.00 12/31/2018 01:29:36 Dec 30 08:29 pm Dec 30 5:29 pm
229.00 12/30/2018 22:58:08 Dec 30 05:58 pm Dec 30 2:58 pm
229.00 12/30/2018 20:28:48 Dec 30 03:28 pm Dec 30 12:28 pm
230.00 12/30/2018 19:58:56 Dec 30 02:58 pm Dec 30 11:58 am
229.00 12/30/2018 17:59:28 Dec 30 12:59 pm Dec 30 9:59 am
227.00 12/30/2018 15:28:00 Dec 30 10:28 am Dec 30 7:28 am
229.00 12/30/2018 12:58:40 Dec 30 07:58 am Dec 30 4:58 am
229.00 12/30/2018 10:29:20 Dec 30 05:29 am Dec 30 2:29 am
227.00 12/30/2018 00:59:44 Dec 29 07:59 pm Dec 29 4:59 pm
227.00 12/29/2018 21:28:32 Dec 29 04:28 pm Dec 29 1:28 pm
230.00 12/29/2018 19:58:56 Dec 29 02:58 pm Dec 29 11:58 am
229.00 12/29/2018 17:59:28 Dec 29 12:59 pm Dec 29 9:59 am
229.00 12/29/2018 15:42:56 Dec 29 10:42 am Dec 29 7:42 am
229.00 12/29/2018 13:28:32 Dec 29 08:28 am Dec 29 5:28 am
231.00 12/29/2018 10:59:12 Dec 29 05:59 am Dec 29 2:59 am
229.00 12/29/2018 08:44:48 Dec 29 03:44 am Dec 29 12:44 am
229.00 12/29/2018 04:13:52 Dec 28 11:13 pm Dec 28 8:13 pm
229.00 12/29/2018 01:59:28 Dec 28 08:59 pm Dec 28 5:59 pm
231.00 12/28/2018 23:42:56 Dec 28 06:42 pm Dec 28 3:42 pm
229.00 12/28/2018 21:43:28 Dec 28 04:43 pm Dec 28 1:43 pm
230.00 12/28/2018 19:58:56 Dec 28 02:58 pm Dec 28 11:58 am
229.00 12/28/2018 19:14:08 Dec 28 02:14 pm Dec 28 11:14 am
229.00 12/28/2018 16:44:48 Dec 28 11:44 am Dec 28 8:44 am
229.00 12/28/2018 14:43:12 Dec 28 09:43 am Dec 28 6:43 am
229.00 12/28/2018 12:28:48 Dec 28 07:28 am Dec 28 4:28 am
229.00 12/28/2018 10:14:24 Dec 28 05:14 am Dec 28 2:14 am
229.00 12/28/2018 08:00:00 Dec 28 03:00 am Dec 28 12:00 am
231.00 12/28/2018 03:29:04 Dec 27 10:29 pm Dec 27 7:29 pm
229.00 12/28/2018 01:14:40 Dec 27 08:14 pm Dec 27 5:14 pm
229.00 12/27/2018 22:43:12 Dec 27 05:43 pm Dec 27 2:43 pm
231.00 12/27/2018 20:28:48 Dec 27 03:28 pm Dec 27 12:28 pm
230.00 12/27/2018 19:58:56 Dec 27 02:58 pm Dec 27 11:58 am
229.00 12/27/2018 17:59:28 Dec 27 12:59 pm Dec 27 9:59 am
229.00 12/27/2018 15:28:00 Dec 27 10:28 am Dec 27 7:28 am
229.00 12/27/2018 13:13:36 Dec 27 08:13 am Dec 27 5:13 am
231.00 12/27/2018 10:44:16 Dec 27 05:44 am Dec 27 2:44 am
229.00 12/27/2018 08:29:52 Dec 27 03:29 am Dec 27 12:29 am
231.00 12/27/2018 03:44:00 Dec 26 10:44 pm Dec 26 7:44 pm
229.00 12/27/2018 01:14:40 Dec 26 08:14 pm Dec 26 5:14 pm
229.00 12/26/2018 22:28:16 Dec 26 05:28 pm Dec 26 2:28 pm
227.00 12/26/2018 20:13:52 Dec 26 03:13 pm Dec 26 12:13 pm
230.00 12/26/2018 19:58:56 Dec 26 02:58 pm Dec 26 11:58 am
227.00 12/26/2018 17:44:32 Dec 26 12:44 pm Dec 26 9:44 am
229.00 12/26/2018 14:43:12 Dec 26 09:43 am Dec 26 6:43 am
229.00 12/26/2018 12:28:48 Dec 26 07:28 am Dec 26 4:28 am
231.00 12/26/2018 10:14:24 Dec 26 05:14 am Dec 26 2:14 am
231.00 12/26/2018 03:29:04 Dec 25 10:29 pm Dec 25 7:29 pm
229.00 12/26/2018 01:14:40 Dec 25 08:14 pm Dec 25 5:14 pm
229.00 12/25/2018 23:13:04 Dec 25 06:13 pm Dec 25 3:13 pm
229.00 12/25/2018 21:13:36 Dec 25 04:13 pm Dec 25 1:13 pm
230.00 12/25/2018 19:58:56 Dec 25 02:58 pm Dec 25 11:58 am
229.00 12/25/2018 19:29:04 Dec 25 02:29 pm Dec 25 11:29 am
231.00 12/25/2018 17:14:40 Dec 25 12:14 pm Dec 25 9:14 am
233.00 12/25/2018 14:43:12 Dec 25 09:43 am Dec 25 6:43 am
233.00 12/25/2018 12:43:44 Dec 25 07:43 am Dec 25 4:43 am
233.00 12/25/2018 10:44:16 Dec 25 05:44 am Dec 25 2:44 am
233.00 12/25/2018 08:44:48 Dec 25 03:44 am Dec 25 12:44 am
233.00 12/25/2018 03:58:56 Dec 24 10:58 pm Dec 24 7:58 pm
233.00 12/25/2018 01:44:32 Dec 24 08:44 pm Dec 24 5:44 pm
233.00 12/24/2018 23:28:00 Dec 24 06:28 pm Dec 24 3:28 pm
233.00 12/24/2018 21:13:36 Dec 24 04:13 pm Dec 24 1:13 pm
235.00 12/24/2018 19:58:56 Dec 24 02:58 pm Dec 24 11:58 am
233.00 12/24/2018 18:59:12 Dec 24 01:59 pm Dec 24 10:59 am
233.00 12/24/2018 16:14:56 Dec 24 11:14 am Dec 24 8:14 am
233.00 12/24/2018 13:28:32 Dec 24 08:28 am Dec 24 5:28 am
233.00 12/24/2018 11:29:04 Dec 24 06:29 am Dec 24 3:29 am
233.00 12/24/2018 09:14:40 Dec 24 04:14 am Dec 24 1:14 am
233.00 12/24/2018 02:59:12 Dec 23 09:59 pm Dec 23 6:59 pm
233.00 12/24/2018 00:44:48 Dec 23 07:44 pm Dec 23 4:44 pm
233.00 12/23/2018 22:28:16 Dec 23 05:28 pm Dec 23 2:28 pm
233.00 12/23/2018 20:28:48 Dec 23 03:28 pm Dec 23 12:28 pm
235.00 12/23/2018 19:58:56 Dec 23 02:58 pm Dec 23 11:58 am
233.00 12/23/2018 18:29:20 Dec 23 01:29 pm Dec 23 10:29 am
233.00 12/23/2018 16:29:52 Dec 23 11:29 am Dec 23 8:29 am
233.00 12/23/2018 14:28:16 Dec 23 09:28 am Dec 23 6:28 am
233.00 12/23/2018 12:13:52 Dec 23 07:13 am Dec 23 4:13 am
233.00 12/23/2018 09:44:32 Dec 23 04:44 am Dec 23 1:44 am
233.00 12/23/2018 03:44:00 Dec 22 10:44 pm Dec 22 7:44 pm
233.00 12/23/2018 01:59:28 Dec 22 08:59 pm Dec 22 5:59 pm
233.00 12/23/2018 00:00:00 Dec 22 07:00 pm Dec 22 4:00 pm
231.00 12/22/2018 21:58:24 Dec 22 04:58 pm Dec 22 1:58 pm
231.00 12/22/2018 20:13:52 Dec 22 03:13 pm Dec 22 12:13 pm
230.00 12/22/2018 19:58:56 Dec 22 02:58 pm Dec 22 11:58 am
229.00 12/22/2018 18:29:20 Dec 22 01:29 pm Dec 22 10:29 am
233.00 12/22/2018 16:44:48 Dec 22 11:44 am Dec 22 8:44 am
233.00 12/22/2018 14:28:16 Dec 22 09:28 am Dec 22 6:28 am
233.00 12/22/2018 12:28:48 Dec 22 07:28 am Dec 22 4:28 am
233.00 12/22/2018 10:44:16 Dec 22 05:44 am Dec 22 2:44 am
233.00 12/22/2018 08:44:48 Dec 22 03:44 am Dec 22 12:44 am
231.00 12/22/2018 03:44:00 Dec 21 10:44 pm Dec 21 7:44 pm
231.00 12/22/2018 01:59:28 Dec 21 08:59 pm Dec 21 5:59 pm
229.00 12/22/2018 00:29:52 Dec 21 07:29 pm Dec 21 4:29 pm
229.00 12/21/2018 22:58:08 Dec 21 05:58 pm Dec 21 2:58 pm
233.00 12/21/2018 21:28:32 Dec 21 04:28 pm Dec 21 1:28 pm
235.00 12/21/2018 19:58:56 Dec 21 02:58 pm Dec 21 11:58 am
235.00 12/21/2018 18:29:20 Dec 21 01:29 pm Dec 21 10:29 am
231.00 12/21/2018 16:44:48 Dec 21 11:44 am Dec 21 8:44 am
231.00 12/21/2018 14:58:08 Dec 21 09:58 am Dec 21 6:58 am
229.00 12/21/2018 13:13:36 Dec 21 08:13 am Dec 21 5:13 am
233.00 12/21/2018 11:14:08 Dec 21 06:14 am Dec 21 3:14 am
231.00 12/21/2018 09:44:32 Dec 21 04:44 am Dec 21 1:44 am
231.00 12/21/2018 08:00:00 Dec 21 03:00 am Dec 21 12:00 am
231.00 12/21/2018 04:58:40 Dec 20 11:58 pm Dec 20 8:58 pm
231.00 12/21/2018 03:29:04 Dec 20 10:29 pm Dec 20 7:29 pm
231.00 12/21/2018 01:44:32 Dec 20 08:44 pm Dec 20 5:44 pm
231.00 12/21/2018 00:14:56 Dec 20 07:14 pm Dec 20 4:14 pm
231.00 12/20/2018 22:43:12 Dec 20 05:43 pm Dec 20 2:43 pm
231.00 12/20/2018 21:13:36 Dec 20 04:13 pm Dec 20 1:13 pm
230.00 12/20/2018 19:58:56 Dec 20 02:58 pm Dec 20 11:58 am
231.00 12/20/2018 19:44:00 Dec 20 02:44 pm Dec 20 11:44 am
231.00 12/20/2018 18:29:20 Dec 20 01:29 pm Dec 20 10:29 am
231.00 12/20/2018 16:44:48 Dec 20 11:44 am Dec 20 8:44 am
231.00 12/20/2018 15:28:00 Dec 20 10:28 am Dec 20 7:28 am
231.00 12/20/2018 13:58:24 Dec 20 08:58 am Dec 20 5:58 am
233.00 12/20/2018 12:28:48 Dec 20 07:28 am Dec 20 4:28 am
231.00 12/20/2018 10:59:12 Dec 20 05:59 am Dec 20 2:59 am
231.00 12/20/2018 09:29:36 Dec 20 04:29 am Dec 20 1:29 am
231.00 12/20/2018 08:00:00 Dec 20 03:00 am Dec 20 12:00 am
231.00 12/20/2018 04:58:40 Dec 19 11:58 pm Dec 19 8:58 pm
231.00 12/20/2018 03:29:04 Dec 19 10:29 pm Dec 19 7:29 pm
231.00 12/20/2018 01:59:28 Dec 19 08:59 pm Dec 19 5:59 pm
231.00 12/20/2018 00:29:52 Dec 19 07:29 pm Dec 19 4:29 pm
231.00 12/19/2018 23:13:04 Dec 19 06:13 pm Dec 19 3:13 pm
231.00 12/19/2018 21:13:36 Dec 19 04:13 pm Dec 19 1:13 pm
235.00 12/19/2018 19:58:56 Dec 19 02:58 pm Dec 19 11:58 am
231.00 12/19/2018 19:44:00 Dec 19 02:44 pm Dec 19 11:44 am
229.00 12/19/2018 18:14:24 Dec 19 01:14 pm Dec 19 10:14 am
231.00 12/19/2018 16:29:52 Dec 19 11:29 am Dec 19 8:29 am
229.00 12/19/2018 14:28:16 Dec 19 09:28 am Dec 19 6:28 am
233.00 12/19/2018 12:58:40 Dec 19 07:58 am Dec 19 4:58 am
233.00 12/19/2018 11:29:04 Dec 19 06:29 am Dec 19 3:29 am
231.00 12/19/2018 09:59:28 Dec 19 04:59 am Dec 19 1:59 am
231.00 12/19/2018 08:29:52 Dec 19 03:29 am Dec 19 12:29 am

Status

Gauge History

Times listed in GMT 24h, ET and PT hours provided for convenience Graphs in GMT. Readings of "n/a" constitute a frozen gauge or gauge error.
Reading Updated (GMT) Eastern Pacific Comment
too low 01/18/2019 05:28:32 Jan 18 12:28 am Jan 17 9:28 pm
too low 01/18/2019 04:13:52 Jan 17 11:13 pm Jan 17 8:13 pm
too low 01/18/2019 03:29:04 Jan 17 10:29 pm Jan 17 7:29 pm
too low 01/18/2019 01:59:28 Jan 17 08:59 pm Jan 17 5:59 pm
too low 01/18/2019 01:29:36 Jan 17 08:29 pm Jan 17 5:29 pm
too low 01/18/2019 00:29:52 Jan 17 07:29 pm Jan 17 4:29 pm
too low 01/17/2019 23:28:00 Jan 17 06:28 pm Jan 17 3:28 pm
too low 01/17/2019 22:28:16 Jan 17 05:28 pm Jan 17 2:28 pm
too low 01/17/2019 21:28:32 Jan 17 04:28 pm Jan 17 1:28 pm
too low 01/17/2019 20:28:48 Jan 17 03:28 pm Jan 17 12:28 pm
too low 01/17/2019 19:29:04 Jan 17 02:29 pm Jan 17 11:29 am
too low 01/17/2019 18:29:20 Jan 17 01:29 pm Jan 17 10:29 am
too low 01/17/2019 17:29:36 Jan 17 12:29 pm Jan 17 9:29 am
too low 01/17/2019 16:29:52 Jan 17 11:29 am Jan 17 8:29 am
too low 01/17/2019 15:28:00 Jan 17 10:28 am Jan 17 7:28 am
too low 01/17/2019 14:28:16 Jan 17 09:28 am Jan 17 6:28 am
too low 01/17/2019 13:28:32 Jan 17 08:28 am Jan 17 5:28 am
too low 01/17/2019 12:28:48 Jan 17 07:28 am Jan 17 4:28 am
too low 01/17/2019 11:29:04 Jan 17 06:29 am Jan 17 3:29 am
too low 01/17/2019 10:29:20 Jan 17 05:29 am Jan 17 2:29 am
too low 01/17/2019 09:14:40 Jan 17 04:14 am Jan 17 1:14 am
too low 01/17/2019 05:13:36 Jan 17 12:13 am Jan 16 9:13 pm
too low 01/17/2019 04:13:52 Jan 16 11:13 pm Jan 16 8:13 pm
too low 01/17/2019 03:14:08 Jan 16 10:14 pm Jan 16 7:14 pm
too low 01/17/2019 02:14:24 Jan 16 09:14 pm Jan 16 6:14 pm
too low 01/17/2019 01:14:40 Jan 16 08:14 pm Jan 16 5:14 pm
too low 01/17/2019 00:14:56 Jan 16 07:14 pm Jan 16 4:14 pm
too low 01/16/2019 23:13:04 Jan 16 06:13 pm Jan 16 3:13 pm
too low 01/16/2019 22:13:20 Jan 16 05:13 pm Jan 16 2:13 pm
too low 01/16/2019 21:13:36 Jan 16 04:13 pm Jan 16 1:13 pm
too low 01/16/2019 20:13:52 Jan 16 03:13 pm Jan 16 12:13 pm
too low 01/16/2019 19:14:08 Jan 16 02:14 pm Jan 16 11:14 am
too low 01/16/2019 18:14:24 Jan 16 01:14 pm Jan 16 10:14 am
too low 01/16/2019 17:44:32 Jan 16 12:44 pm Jan 16 9:44 am
too low 01/16/2019 16:14:56 Jan 16 11:14 am Jan 16 8:14 am
too low 01/16/2019 15:28:00 Jan 16 10:28 am Jan 16 7:28 am
too low 01/15/2019 20:28:48 Jan 15 03:28 pm Jan 15 12:28 pm
too low 01/15/2019 14:43:12 Jan 15 09:43 am Jan 15 6:43 am
too low 01/15/2019 11:29:04 Jan 15 06:29 am Jan 15 3:29 am
too low 01/15/2019 08:00:00 Jan 15 03:00 am Jan 15 12:00 am
too low 01/15/2019 01:29:36 Jan 14 08:29 pm Jan 14 5:29 pm
too low 01/14/2019 22:13:20 Jan 14 05:13 pm Jan 14 2:13 pm
too low 01/14/2019 19:58:56 Jan 14 02:58 pm Jan 14 11:58 am
too low 01/14/2019 18:59:12 Jan 14 01:59 pm Jan 14 10:59 am
too low 01/14/2019 14:58:08 Jan 14 09:58 am Jan 14 6:58 am
too low 01/14/2019 09:59:28 Jan 14 04:59 am Jan 14 1:59 am
too low 01/14/2019 03:58:56 Jan 13 10:58 pm Jan 13 7:58 pm
too low 01/14/2019 01:14:40 Jan 13 08:14 pm Jan 13 5:14 pm
too low 01/13/2019 22:28:16 Jan 13 05:28 pm Jan 13 2:28 pm
too low 01/13/2019 19:44:00 Jan 13 02:44 pm Jan 13 11:44 am
too low 01/13/2019 16:44:48 Jan 13 11:44 am Jan 13 8:44 am
too low 01/13/2019 13:43:28 Jan 13 08:43 am Jan 13 5:43 am
too low 01/13/2019 10:59:12 Jan 13 05:59 am Jan 13 2:59 am
too low 01/13/2019 08:14:56 Jan 13 03:14 am Jan 13 12:14 am
too low 01/13/2019 02:14:24 Jan 12 09:14 pm Jan 12 6:14 pm
too low 01/12/2019 23:42:56 Jan 12 06:42 pm Jan 12 3:42 pm
too low 01/12/2019 20:43:44 Jan 12 03:43 pm Jan 12 12:43 pm
too low 01/12/2019 17:29:36 Jan 12 12:29 pm Jan 12 9:29 am
too low 01/12/2019 14:28:16 Jan 12 09:28 am Jan 12 6:28 am
too low 01/12/2019 11:29:04 Jan 12 06:29 am Jan 12 3:29 am
too low 01/12/2019 08:14:56 Jan 12 03:14 am Jan 12 12:14 am
too low 01/12/2019 01:59:28 Jan 11 08:59 pm Jan 11 5:59 pm
too low 01/11/2019 22:58:08 Jan 11 05:58 pm Jan 11 2:58 pm
too low 01/11/2019 19:44:00 Jan 11 02:44 pm Jan 11 11:44 am
too low 01/11/2019 16:44:48 Jan 11 11:44 am Jan 11 8:44 am
too low 01/11/2019 13:43:28 Jan 11 08:43 am Jan 11 5:43 am
too low 01/11/2019 10:44:16 Jan 11 05:44 am Jan 11 2:44 am
too low 01/10/2019 20:13:52 Jan 10 03:13 pm Jan 10 12:13 pm
too low 01/10/2019 17:29:36 Jan 10 12:29 pm Jan 10 9:29 am
too low 01/10/2019 14:43:12 Jan 10 09:43 am Jan 10 6:43 am
too low 01/10/2019 12:13:52 Jan 10 07:13 am Jan 10 4:13 am
too low 01/10/2019 09:29:36 Jan 10 04:29 am Jan 10 1:29 am
too low 01/10/2019 03:58:56 Jan 9 10:58 pm Jan 9 7:58 pm
too low 01/10/2019 01:14:40 Jan 9 08:14 pm Jan 9 5:14 pm
too low 01/09/2019 22:13:20 Jan 9 05:13 pm Jan 9 2:13 pm
too low 01/09/2019 19:29:04 Jan 9 02:29 pm Jan 9 11:29 am
too low 01/09/2019 16:29:52 Jan 9 11:29 am Jan 9 8:29 am
too low 01/09/2019 13:28:32 Jan 9 08:28 am Jan 9 5:28 am
too low 01/09/2019 10:14:24 Jan 9 05:14 am Jan 9 2:14 am
too low 01/09/2019 03:44:00 Jan 8 10:44 pm Jan 8 7:44 pm
too low 01/09/2019 00:14:56 Jan 8 07:14 pm Jan 8 4:14 pm
too low 01/08/2019 21:28:32 Jan 8 04:28 pm Jan 8 1:28 pm
too low 01/08/2019 18:14:24 Jan 8 01:14 pm Jan 8 10:14 am
too low 01/08/2019 15:13:04 Jan 8 10:13 am Jan 8 7:13 am
too low 01/08/2019 12:43:44 Jan 8 07:43 am Jan 8 4:43 am
too low 01/08/2019 09:59:28 Jan 8 04:59 am Jan 8 1:59 am
too low 01/08/2019 01:14:40 Jan 7 08:14 pm Jan 7 5:14 pm
too low 01/07/2019 22:13:20 Jan 7 05:13 pm Jan 7 2:13 pm
too low 01/07/2019 19:14:08 Jan 7 02:14 pm Jan 7 11:14 am
too low 01/07/2019 16:14:56 Jan 7 11:14 am Jan 7 8:14 am
too low 01/06/2019 23:13:04 Jan 6 06:13 pm Jan 6 3:13 pm
too low 01/06/2019 20:13:52 Jan 6 03:13 pm Jan 6 12:13 pm
too low 01/06/2019 16:29:52 Jan 6 11:29 am Jan 6 8:29 am
too low 01/06/2019 10:44:16 Jan 6 05:44 am Jan 6 2:44 am
too low 01/06/2019 08:00:00 Jan 6 03:00 am Jan 6 12:00 am
too low 01/06/2019 02:14:24 Jan 5 09:14 pm Jan 5 6:14 pm
too low 01/05/2019 23:42:56 Jan 5 06:42 pm Jan 5 3:42 pm
too low 01/05/2019 20:58:40 Jan 5 03:58 pm Jan 5 12:58 pm
too low 01/05/2019 18:29:20 Jan 5 01:29 pm Jan 5 10:29 am
too low 01/05/2019 15:42:56 Jan 5 10:42 am Jan 5 7:42 am
too low 01/05/2019 13:13:36 Jan 5 08:13 am Jan 5 5:13 am
too low 01/05/2019 10:44:16 Jan 5 05:44 am Jan 5 2:44 am
too low 01/05/2019 08:00:00 Jan 5 03:00 am Jan 5 12:00 am
too low 01/05/2019 01:44:32 Jan 4 08:44 pm Jan 4 5:44 pm
too low 01/04/2019 22:13:20 Jan 4 05:13 pm Jan 4 2:13 pm
too low 01/04/2019 19:58:56 Jan 4 02:58 pm Jan 4 11:58 am
too low 01/04/2019 18:59:12 Jan 4 01:59 pm Jan 4 10:59 am
too low 01/04/2019 15:42:56 Jan 4 10:42 am Jan 4 7:42 am
too low 01/04/2019 12:43:44 Jan 4 07:43 am Jan 4 4:43 am
too low 01/04/2019 09:44:32 Jan 4 04:44 am Jan 4 1:44 am
too low 01/04/2019 03:29:04 Jan 3 10:29 pm Jan 3 7:29 pm
too low 01/04/2019 00:14:56 Jan 3 07:14 pm Jan 3 4:14 pm
too low 01/03/2019 21:13:36 Jan 3 04:13 pm Jan 3 1:13 pm
too low 01/03/2019 18:14:24 Jan 3 01:14 pm Jan 3 10:14 am
too low 01/03/2019 14:43:12 Jan 3 09:43 am Jan 3 6:43 am
too low 01/03/2019 11:44:00 Jan 3 06:44 am Jan 3 3:44 am
too low 01/03/2019 09:14:40 Jan 3 04:14 am Jan 3 1:14 am
too low 01/03/2019 03:58:56 Jan 2 10:58 pm Jan 2 7:58 pm
too low 01/03/2019 01:44:32 Jan 2 08:44 pm Jan 2 5:44 pm
too low 01/02/2019 23:13:04 Jan 2 06:13 pm Jan 2 3:13 pm
too low 01/02/2019 20:58:40 Jan 2 03:58 pm Jan 2 12:58 pm
too low 01/02/2019 18:29:20 Jan 2 01:29 pm Jan 2 10:29 am
too low 01/02/2019 16:14:56 Jan 2 11:14 am Jan 2 8:14 am
too low 01/02/2019 13:43:28 Jan 2 08:43 am Jan 2 5:43 am
too low 01/02/2019 11:29:04 Jan 2 06:29 am Jan 2 3:29 am
too low 01/02/2019 08:59:44 Jan 2 03:59 am Jan 2 12:59 am
too low 01/02/2019 03:14:08 Jan 1 10:14 pm Jan 1 7:14 pm
too low 01/02/2019 00:44:48 Jan 1 07:44 pm Jan 1 4:44 pm
too low 01/01/2019 22:13:20 Jan 1 05:13 pm Jan 1 2:13 pm
too low 01/01/2019 19:58:56 Jan 1 02:58 pm Jan 1 11:58 am
too low 01/01/2019 19:44:00 Jan 1 02:44 pm Jan 1 11:44 am
too low 01/01/2019 16:59:44 Jan 1 11:59 am Jan 1 8:59 am
too low 01/01/2019 02:59:12 Dec 31 09:59 pm Dec 31 6:59 pm
too low 01/01/2019 00:00:00 Dec 31 07:00 pm Dec 31 4:00 pm
too low 12/31/2018 21:28:32 Dec 31 04:28 pm Dec 31 1:28 pm
too low 12/31/2018 19:58:56 Dec 31 02:58 pm Dec 31 11:58 am
too low 12/31/2018 18:44:16 Dec 31 01:44 pm Dec 31 10:44 am
too low 12/31/2018 14:43:12 Dec 31 09:43 am Dec 31 6:43 am
too low 12/31/2018 10:44:16 Dec 31 05:44 am Dec 31 2:44 am
too low 12/31/2018 04:13:52 Dec 30 11:13 pm Dec 30 8:13 pm
too low 12/31/2018 01:29:36 Dec 30 08:29 pm Dec 30 5:29 pm
too low 12/30/2018 22:58:08 Dec 30 05:58 pm Dec 30 2:58 pm
too low 12/30/2018 20:28:48 Dec 30 03:28 pm Dec 30 12:28 pm
too low 12/30/2018 17:59:28 Dec 30 12:59 pm Dec 30 9:59 am
too low 12/30/2018 15:28:00 Dec 30 10:28 am Dec 30 7:28 am
too low 12/30/2018 12:58:40 Dec 30 07:58 am Dec 30 4:58 am
too low 12/30/2018 10:29:20 Dec 30 05:29 am Dec 30 2:29 am
too low 12/30/2018 00:59:44 Dec 29 07:59 pm Dec 29 4:59 pm
too low 12/29/2018 21:28:32 Dec 29 04:28 pm Dec 29 1:28 pm
too low 12/29/2018 17:59:28 Dec 29 12:59 pm Dec 29 9:59 am
too low 12/29/2018 15:42:56 Dec 29 10:42 am Dec 29 7:42 am
too low 12/29/2018 13:28:32 Dec 29 08:28 am Dec 29 5:28 am
too low 12/29/2018 10:59:12 Dec 29 05:59 am Dec 29 2:59 am
too low 12/29/2018 08:44:48 Dec 29 03:44 am Dec 29 12:44 am
too low 12/29/2018 04:13:52 Dec 28 11:13 pm Dec 28 8:13 pm
too low 12/29/2018 01:59:28 Dec 28 08:59 pm Dec 28 5:59 pm
too low 12/28/2018 23:42:56 Dec 28 06:42 pm Dec 28 3:42 pm
too low 12/28/2018 21:43:28 Dec 28 04:43 pm Dec 28 1:43 pm
too low 12/28/2018 19:58:56 Dec 28 02:58 pm Dec 28 11:58 am
too low 12/28/2018 19:14:08 Dec 28 02:14 pm Dec 28 11:14 am
too low 12/28/2018 16:44:48 Dec 28 11:44 am Dec 28 8:44 am
too low 12/28/2018 14:43:12 Dec 28 09:43 am Dec 28 6:43 am
too low 12/28/2018 12:28:48 Dec 28 07:28 am Dec 28 4:28 am
too low 12/28/2018 10:14:24 Dec 28 05:14 am Dec 28 2:14 am
too low 12/28/2018 08:00:00 Dec 28 03:00 am Dec 28 12:00 am
too low 12/28/2018 03:29:04 Dec 27 10:29 pm Dec 27 7:29 pm
too low 12/28/2018 01:14:40 Dec 27 08:14 pm Dec 27 5:14 pm
too low 12/27/2018 22:43:12 Dec 27 05:43 pm Dec 27 2:43 pm
too low 12/27/2018 20:28:48 Dec 27 03:28 pm Dec 27 12:28 pm
too low 12/27/2018 19:58:56 Dec 27 02:58 pm Dec 27 11:58 am
too low 12/27/2018 17:59:28 Dec 27 12:59 pm Dec 27 9:59 am
too low 12/27/2018 15:28:00 Dec 27 10:28 am Dec 27 7:28 am
too low 12/27/2018 13:13:36 Dec 27 08:13 am Dec 27 5:13 am
too low 12/27/2018 10:44:16 Dec 27 05:44 am Dec 27 2:44 am
too low 12/27/2018 08:29:52 Dec 27 03:29 am Dec 27 12:29 am
too low 12/27/2018 03:44:00 Dec 26 10:44 pm Dec 26 7:44 pm
too low 12/27/2018 01:14:40 Dec 26 08:14 pm Dec 26 5:14 pm
too low 12/26/2018 22:28:16 Dec 26 05:28 pm Dec 26 2:28 pm
too low 12/26/2018 20:13:52 Dec 26 03:13 pm Dec 26 12:13 pm
too low 12/26/2018 19:58:56 Dec 26 02:58 pm Dec 26 11:58 am
too low 12/26/2018 17:44:32 Dec 26 12:44 pm Dec 26 9:44 am
too low 12/26/2018 14:43:12 Dec 26 09:43 am Dec 26 6:43 am
too low 12/26/2018 12:28:48 Dec 26 07:28 am Dec 26 4:28 am
too low 12/26/2018 10:14:24 Dec 26 05:14 am Dec 26 2:14 am
too low 12/26/2018 03:29:04 Dec 25 10:29 pm Dec 25 7:29 pm
too low 12/26/2018 01:14:40 Dec 25 08:14 pm Dec 25 5:14 pm
too low 12/25/2018 23:13:04 Dec 25 06:13 pm Dec 25 3:13 pm
too low 12/25/2018 21:13:36 Dec 25 04:13 pm Dec 25 1:13 pm
too low 12/25/2018 19:29:04 Dec 25 02:29 pm Dec 25 11:29 am
too low 12/25/2018 17:14:40 Dec 25 12:14 pm Dec 25 9:14 am
too low 12/25/2018 14:43:12 Dec 25 09:43 am Dec 25 6:43 am
too low 12/25/2018 12:43:44 Dec 25 07:43 am Dec 25 4:43 am
too low 12/25/2018 10:44:16 Dec 25 05:44 am Dec 25 2:44 am
too low 12/25/2018 08:44:48 Dec 25 03:44 am Dec 25 12:44 am
too low 12/25/2018 03:58:56 Dec 24 10:58 pm Dec 24 7:58 pm
too low 12/25/2018 01:44:32 Dec 24 08:44 pm Dec 24 5:44 pm
too low 12/24/2018 23:28:00 Dec 24 06:28 pm Dec 24 3:28 pm
too low 12/24/2018 21:13:36 Dec 24 04:13 pm Dec 24 1:13 pm
too low 12/24/2018 19:58:56 Dec 24 02:58 pm Dec 24 11:58 am
too low 12/24/2018 18:59:12 Dec 24 01:59 pm Dec 24 10:59 am
too low 12/24/2018 16:14:56 Dec 24 11:14 am Dec 24 8:14 am
too low 12/24/2018 13:28:32 Dec 24 08:28 am Dec 24 5:28 am
too low 12/24/2018 11:29:04 Dec 24 06:29 am Dec 24 3:29 am
too low 12/24/2018 09:14:40 Dec 24 04:14 am Dec 24 1:14 am
too low 12/24/2018 02:59:12 Dec 23 09:59 pm Dec 23 6:59 pm
too low 12/24/2018 00:44:48 Dec 23 07:44 pm Dec 23 4:44 pm
too low 12/23/2018 22:28:16 Dec 23 05:28 pm Dec 23 2:28 pm
too low 12/23/2018 20:28:48 Dec 23 03:28 pm Dec 23 12:28 pm
too low 12/23/2018 18:29:20 Dec 23 01:29 pm Dec 23 10:29 am
too low 12/23/2018 16:29:52 Dec 23 11:29 am Dec 23 8:29 am
too low 12/23/2018 14:28:16 Dec 23 09:28 am Dec 23 6:28 am
too low 12/23/2018 12:13:52 Dec 23 07:13 am Dec 23 4:13 am
too low 12/23/2018 09:44:32 Dec 23 04:44 am Dec 23 1:44 am
too low 12/23/2018 03:44:00 Dec 22 10:44 pm Dec 22 7:44 pm
too low 12/23/2018 01:59:28 Dec 22 08:59 pm Dec 22 5:59 pm
too low 12/23/2018 00:00:00 Dec 22 07:00 pm Dec 22 4:00 pm
too low 12/22/2018 21:58:24 Dec 22 04:58 pm Dec 22 1:58 pm
too low 12/22/2018 20:13:52 Dec 22 03:13 pm Dec 22 12:13 pm
too low 12/22/2018 18:29:20 Dec 22 01:29 pm Dec 22 10:29 am
too low 12/22/2018 16:44:48 Dec 22 11:44 am Dec 22 8:44 am
too low 12/22/2018 14:28:16 Dec 22 09:28 am Dec 22 6:28 am
too low 12/22/2018 12:28:48 Dec 22 07:28 am Dec 22 4:28 am
too low 12/22/2018 10:44:16 Dec 22 05:44 am Dec 22 2:44 am
too low 12/22/2018 08:44:48 Dec 22 03:44 am Dec 22 12:44 am
too low 12/22/2018 03:44:00 Dec 21 10:44 pm Dec 21 7:44 pm
too low 12/22/2018 01:59:28 Dec 21 08:59 pm Dec 21 5:59 pm
too low 12/22/2018 00:29:52 Dec 21 07:29 pm Dec 21 4:29 pm
too low 12/21/2018 22:58:08 Dec 21 05:58 pm Dec 21 2:58 pm
too low 12/21/2018 21:28:32 Dec 21 04:28 pm Dec 21 1:28 pm
too low 12/21/2018 19:58:56 Dec 21 02:58 pm Dec 21 11:58 am
too low 12/21/2018 18:29:20 Dec 21 01:29 pm Dec 21 10:29 am
too low 12/21/2018 16:44:48 Dec 21 11:44 am Dec 21 8:44 am
too low 12/21/2018 14:58:08 Dec 21 09:58 am Dec 21 6:58 am
too low 12/21/2018 13:13:36 Dec 21 08:13 am Dec 21 5:13 am
too low 12/21/2018 11:14:08 Dec 21 06:14 am Dec 21 3:14 am
too low 12/21/2018 09:44:32 Dec 21 04:44 am Dec 21 1:44 am
too low 12/21/2018 08:00:00 Dec 21 03:00 am Dec 21 12:00 am
too low 12/21/2018 04:58:40 Dec 20 11:58 pm Dec 20 8:58 pm
too low 12/21/2018 03:29:04 Dec 20 10:29 pm Dec 20 7:29 pm
too low 12/21/2018 01:44:32 Dec 20 08:44 pm Dec 20 5:44 pm
too low 12/21/2018 00:14:56 Dec 20 07:14 pm Dec 20 4:14 pm
too low 12/20/2018 22:43:12 Dec 20 05:43 pm Dec 20 2:43 pm
too low 12/20/2018 21:13:36 Dec 20 04:13 pm Dec 20 1:13 pm
too low 12/20/2018 19:44:00 Dec 20 02:44 pm Dec 20 11:44 am
too low 12/20/2018 18:29:20 Dec 20 01:29 pm Dec 20 10:29 am
too low 12/20/2018 16:44:48 Dec 20 11:44 am Dec 20 8:44 am
too low 12/20/2018 15:28:00 Dec 20 10:28 am Dec 20 7:28 am
too low 12/20/2018 13:58:24 Dec 20 08:58 am Dec 20 5:58 am
too low 12/20/2018 12:28:48 Dec 20 07:28 am Dec 20 4:28 am
too low 12/20/2018 10:59:12 Dec 20 05:59 am Dec 20 2:59 am
too low 12/20/2018 09:29:36 Dec 20 04:29 am Dec 20 1:29 am
too low 12/20/2018 08:00:00 Dec 20 03:00 am Dec 20 12:00 am
too low 12/20/2018 04:58:40 Dec 19 11:58 pm Dec 19 8:58 pm
too low 12/20/2018 03:29:04 Dec 19 10:29 pm Dec 19 7:29 pm
too low 12/20/2018 01:59:28 Dec 19 08:59 pm Dec 19 5:59 pm
too low 12/20/2018 00:29:52 Dec 19 07:29 pm Dec 19 4:29 pm
too low 12/19/2018 23:13:04 Dec 19 06:13 pm Dec 19 3:13 pm
too low 12/19/2018 21:13:36 Dec 19 04:13 pm Dec 19 1:13 pm
too low 12/19/2018 19:44:00 Dec 19 02:44 pm Dec 19 11:44 am
too low 12/19/2018 18:14:24 Dec 19 01:14 pm Dec 19 10:14 am
too low 12/19/2018 16:29:52 Dec 19 11:29 am Dec 19 8:29 am
too low 12/19/2018 14:28:16 Dec 19 09:28 am Dec 19 6:28 am
too low 12/19/2018 12:58:40 Dec 19 07:58 am Dec 19 4:58 am
too low 12/19/2018 11:29:04 Dec 19 06:29 am Dec 19 3:29 am
too low 12/19/2018 09:59:28 Dec 19 04:59 am Dec 19 1:59 am
too low 12/19/2018 08:29:52 Dec 19 03:29 am Dec 19 12:29 am

Report - Reports of Related Gauges

Reports give the public a chance to report on river conditions throughout the country as well as log the history of a river.

Reports

No Reports Filed

Linked Reaches

Click a heading to sort. Hover over a heading for help.
River Name/Section Class Level running? Updated
McCloud [CA] McCloud Reservoir to Lake Shasta III-IV 861 cfs
-25 cfs/hr
R3-
Runnable
02h00m